C/2017 T2 ( PanSTARRS )

Japanese version
Home page
Updated on September 9, 2020

---------------------------------------------------------------------

* Profile

Discovery Date October 2, 2017
Magnitude 19.9 mag
Discoverer Pan-STARRS 1 telescope (Haleakala)

* Pictures

* Orbital Elements

Epoch 2020 Apr. 21.0 TT = JDT 2458960.5
T 2020 May 4.95288 TT                                   Rudenko
q   1.6151244            (2000.0)            P               Q
z  +0.0002283      Peri.   92.99385     -0.50995508     -0.40635384
 +/-0.0000002      Node    64.37790     -0.16277157     -0.81987984
e   0.9996312      Incl.   57.23054     +0.84466043     -0.40332816
From 4811 observations 2017 Sept. 15-2020 July 19, mean residual 0".6.

* Finding Charts

* Magnitudes Graph

        m1 = -4.5 + 5 log d + 20.0 log r          [    ,-820]  (             - 2018 Feb.  4)
        m1 =  5.2 + 5 log d +  9.5 log r(t + 15)  [-820,    ]  (2018 Feb.  4 -             )

---------------------------------------------------------------------

The orbital elements are published on M.P.E.C. 2020-P19.
The charts are made with StellaNavigator Ver.10 (AstroArts).
The magnitudes graphs are made with Comet for Windows.

---------------------------------------------------------------------

Copyright(C) Seiichi Yoshida (comet@aerith.net). All rights reserved.